Regional Weather Roundup
Issued by NWS

Home | Current Version | Previous Version | Text Only | Print | Product List | Glossary On
Versions: 1 2 3 4 5 6 7 8 9 10 11 12 13 14 15 16 17 18 19 20 21 22 23 24 25 26 27 28 29 30 31 32 33 34 35 36 37 38 39 40 41 42 43 44 45 46 47 48 49 50
000
ASUS42 KKEY 300510
RWRKEY

FLORIDA REGIONAL WEATHER ROUNDUP FOR THE FLORIDA KEYS
NATIONAL WEATHER SERVICE KEY WEST FLORIDA
100 AM EDT FRI SEP 30 2016

...SOUTH FLORIDA AND THE KEYS...

CITY           SKY/WX    TMP DP  RH WIND       PRES   REMARKS
FORT MYERS     CLOUDY    78  74  87 E5        30.04F
SW REGIONAL AP CLOUDY    78  74  87 SE5       30.05F
NAPLES         CLOUDY    80  76  87 CALM      30.04F
MIAMI          CLOUDY    82  75  79 S5        30.06F
WEST KENDALL   PTCLDY    76  73  91 CALM      30.06F
HOMESTEAD      MOCLDY    77  75  92 CALM      30.05F
MARATHON       CLEAR     80  75  84 CALM      30.06F
BOCA CHICA NAS PTCLDY    82  74  76 NE5       30.06F
KEY WEST INTL  PTCLDY    84  77  79 SE5       30.06F HX  94

...INTERNATIONAL WEATHER...

CITY           SKY/WX    TMP DP  RH WIND       PRES   REMARKS
NASSAU BAHAMAS MOCLDY    81  73  78 E3        30.07F THUNDER
CANCUN MEXICO  PTCLDY    77  77 100 CALM      30.06S
COZUMEL MEXICO PTCLDY    81  77  89 CALM      30.05F

ADJACENT COASTAL WATERS...

STATION/POSITION TIME  SKY/WX   TEMP    WIND        PRES    WAVE
                                AIR SEA DIR/SP/G            HT/PER
                 (UTC)          (F)     (DEG/KT/KT) (MB)    (FT/S)
PULASKI SHOAL LI 0500            83     120/  7/  8 1017.9F
SAND KEY         0450            83      10/  1/  6 1018.6F
LONG KEY         0400            84 87  100/  3/  4 1018.7F
FOWEY ROCKS      0400            84 84  150/  6/  6 1019.1F

$$



USA.gov is the U.S. government's official web portal to all federal, state and local government web resources and services.